Location: Launay
(47.2429°N, 1.5727°E)
Time: 20:41:35
(UTC+00:00)

Cosmos 2360 Rocket - Pass Details

Date: 19 May 2025
Orbit: 834 x 842 km, 71.0° (Epoch: 18 June)

Event Time Altitude Azimuth Distance (km) Brightness Sun altitude
Rises 23:09:07 0° 335° (NNW) 3,393 6.7 -22.1°
Reaches altitude 10° 23:11:39 10° 340° (NNW) 2,455 5.7 -22.2°
Maximum altitude 23:17:08 52° 57° (ENE) 1,033 2.7 -22.4°
Enters shadow 23:19:32 31° 116° (ESE) 1,420 3.1 -22.4°
